Flag for Germany Weather past 2 weeks in Stendal, Saxony-Anhalt, Germany

Now
79 °F

Overcast.


Feels Like: 81 °F
Forecast: 65 / 80 °F
Wind: 3 mph from Northeast

Location: Magdeburg

Current Time: Jul 28, 2014 at 9:50:13 PM

Latest Report: Jul 28, 2014 at 9:00 PM


Visibility: 13 mi

Pressure: 29.85 "Hg

Humidity: 61%

Dew point: 65 °F

Location of StendalLocation

Historic Weather in Stendal — Graph

°F

Stendal temperature yesterday

Maximum temperature yesterday: 83 °F (at 1:00 PM)
Minimum temperature yesterday: 65 °F (at 6:00 AM)
Average temperature yesterday: 75 °F

Past Weeks' High & Low Weather Summary

 TemperatureHumidityPressure
High93 °F (Jul 20, 3:00 PM)98% (Jul 26, 6:00 AM)30.20 "Hg (Jul 26, 6:00 AM)
Low58 °F (Jul 17, 6:00 AM)20% (Jul 19, 6:00 PM)29.73 "Hg (Jul 14, 1:00 AM)
Average72 °F66%29.98 "Hg
* Reported Jul 13 9:00 PM — Jul 28 9:00 PM, Stendal, Weather by CustomWeather, © 2014

Note: Actual official high and low records may vary slightly from our data, if they occured in-between our weather recording intervals... More about our weather records

Advertising

Stendal weather history for previous 24 hours

 ConditionsComfort  
Time TempWeatherWind HumidityBarometerVisibility
9:00 PM
Jul 28
79 °FOvercast.3 mph61%29.85 "Hg12 mi
8:00 PM82 °FPartly sunny.2 mph56%29.83 "Hg16 mi
7:00 PM82 °FScattered clouds.3 mph52%29.82 "Hg17 mi
6:00 PM82 °FScattered clouds.3 mph49%29.83 "Hg13 mi
4:00 PM82 °FPartly sunny.3 mph54%29.86 "Hg19 mi
3:00 PM81 °FPartly sunny.2 mph52%29.88 "Hg19 mi
2:00 PM82 °FPartly sunny.2 mph52%29.89 "Hg16 mi
1:00 PM79 °FPartly sunny.2 mph61%29.90 "Hg12 mi
12:00 PM75 °FPartly sunny.2 mph72%29.92 "Hg7 mi
11:00 AM72 °FFog.2 mph81%29.93 "Hg4 mi
10:00 AM72 °FPartly sunny.2 mph83%29.94 "Hg4 mi
9:00 AM67 °FLight rain. Overcast.1 mph94%29.94 "Hg2 mi
8:00 AM66 °FSprinkles. Overcast.1 mph92%29.94 "Hg3 mi
7:00 AM67 °FFog.2 mph89%29.94 "Hg4 mi
6:00 AM66 °FFog.1 mph90%29.93 "Hg4 mi
4:00 AM68 °FOvercast.2 mph82%29.94 "Hg7 mi
3:00 AM69 °FOvercast.3 mph80%29.95 "Hg11 mi
2:00 AM70 °FOvercast.3 mph79%29.96 "Hg10 mi
1:00 AM69 °FPassing clouds.1 mph82%29.95 "Hg7 mi
12:00 AM71 °FOvercast.1 mph80%29.95 "Hg11 mi
10:00 PM
Jul 27
75 °FOvercast.3 mph70%29.95 "Hg10 mi
9:00 PM77 °FOvercast.No wind65%29.93 "Hg15 mi
Weather by CustomWeather, © 2014

See weather overviewHow to use our weather pages